Regional Weather Roundup
Issued by NWS Little Rock, AR

Home | Current Version | Previous Version | Text Only | Print | Product List | Glossary On
Versions: 1 2 3 4 5 6 7 8 9 10 11 12 13 14 15 16 17 18 19 20 21 22 23 24 25 26 27 28 29 30 31 32 33 34 35 36 37 38 39 40 41 42 43 44 45 46 47 48 49 50
000
ASUS44 KLZK 252205
RWRLZK

WEATHER ROUNDUP FOR ARKANSAS
NATIONAL WEATHER SERVICE LITTLE ROCK AR
400 PM CST SAT FEB 25 2017

NOTE: "FAIR" INDICATES FEW OR NO CLOUDS BELOW 12,000 FEET WITH NO
SIGNIFICANT WEATHER AND/OR OBSTRUCTIONS TO VISIBILITY.

ARZ001-003-010-029-252300-
NORTHWEST ARKANSAS

CITY           SKY/WX    TMP DP  RH WIND       PRES   REMARKS
FAYETTEVILLE   SUNNY     45  13  27 CALM      30.12F
FORT SMITH     SUNNY     50  13  22 W10       30.15F
HARRISON       SUNNY     44  11  26 NW6       30.12S
BENTONVILLE    SUNNY     45  10  24 W3        30.13S
ROGERS         SUNNY     44  12  27 VRB5      30.12F
SILOAM SPGS    SUNNY     45  12  26 CALM      30.13S
HIGHFILL       SUNNY     46  13  26 CALM      30.12F
SPRINGDALE     SUNNY     46  12  25 NW9       30.13F
$$

ARZ004-005-016-252300-
NORTH CENTRAL ARKANSAS

CITY           SKY/WX    TMP DP  RH WIND       PRES   REMARKS
BATESVILLE     SUNNY     48  18  29 W7        30.14S
FLIPPIN        SUNNY     48  12  23 NW6G21    30.11S
MTN HOME       SUNNY     46  12  25 VRB5      30.11S
$$

ARZ040-041-252300-
WEST CENTRAL ARKANSAS

CITY           SKY/WX    TMP DP  RH WIND       PRES   REMARKS
MENA           SUNNY     54  14  20 CALM      30.12F
MOUNT IDA      SUNNY     53  11  18 NW6       30.11F
$$

ARZ009-017-025-026-028-252300-
NORTHEAST ARKANSAS

CITY           SKY/WX    TMP DP  RH WIND       PRES   REMARKS
CORNING        FAIR      46  18  31 NW10      30.12S
JONESBORO      SUNNY     47  21  35 W15       30.13S
NEWPORT        SUNNY     48  16  27 VRB5G18   30.14S
WALNUT RIDGE   SUNNY     48  18  29 NW13      30.12S
BLYTHEVILLE    SUNNY     46  21  37 W12       30.14S
$$

ARZ022-023-033-042-044-252300-
CENTRAL ARKANSAS

CITY           SKY/WX    TMP DP  RH WIND       PRES   REMARKS
LITTLE ROCK    SUNNY     51  17  26 W5        30.15F
N LITTLE ROCK    N/A     50  22  32 N6        30.16F
JACKSONVILLE   SUNNY     52  19  27 W10       30.13F
SEARCY         SUNNY     51  16  24 N7        30.15F
HOT SPRINGS    SUNNY     53  13  20 NW6       30.13F
RUSSELLVILLE   SUNNY     51  15  23 NW8       30.13F
CLINTON        FAIR      50  12  22 VRB7G15   30.13F
$$

ARZ036-252300-
EAST ARKANSAS

CITY           SKY/WX    TMP DP  RH WIND       PRES   REMARKS
WEST MEMPHIS   SUNNY     45  23  42 NW10      30.14S
$$

ARZ050-053-066-070-073-252300-
SOUTHWEST ARKANSAS

CITY           SKY/WX    TMP DP  RH WIND       PRES   REMARKS
ARKADELPHIA    FAIR      54  22  28 VRB3      30.15F
CAMDEN         SUNNY     57  18  21 W6        30.15F
TEXARKANA      SUNNY     52  21  29 CALM      30.14F
EL DORADO      SUNNY     56  23  27 NE7       30.14F
DE QUEEN       SUNNY     54  22  28 SW7       30.12F
$$

ARZ056-057-069-252300-
SOUTHEAST ARKANSAS

CITY           SKY/WX    TMP DP  RH WIND       PRES   REMARKS
PINE BLUFF     SUNNY     52  21  29 CALM      30.15F
STUTTGART      SUNNY     52  19  28 W9        30.16S
MONTICELLO     SUNNY     54  20  26 NW6       30.14F

$$





USA.gov is the U.S. government's official web portal to all federal, state and local government web resources and services.